This is the latest recevied weather packets stored in our database for station/object KJ4EWA. If no packets are shown the sender has not sent any weather packets the latest 10 day(s).
| Time | Temp. | Humidity | Pressure | Rain* | Wind** | Luminosity | Snow |
|---|---|---|---|---|---|---|---|
| 1777948186 | 13.33° C | 93% | 1018.2 hPa | 0 mm | - | 0 W/m² | - |
| 1777947884 | 13.89° C | 93% | 1018.2 hPa | 0 mm | - | 0 W/m² | - |
| 1777947581 | 13.89° C | 92% | 1018.3 hPa | 0 mm | - | 0 W/m² | - |
| 1777947277 | 13.89° C | 92% | 1018 hPa | 0 mm | - | 0 W/m² | - |
| 1777946973 | 13.89° C | 91% | 1018 hPa | 0 mm | - | 0 W/m² | - |
| 1777946668 | 13.89° C | 91% | 1018.2 hPa | 0 mm | - | 0 W/m² | - |
| 1777946365 | 14.44° C | 89% | 1018.3 hPa | 0 mm | - | 0 W/m² | - |
| 1777946063 | 14.44° C | 89% | 1018.1 hPa | 0 mm | - | 0 W/m² | - |
| 1777945760 | 15° C | 88% | 1018.1 hPa | 0 mm | - | 0 W/m² | - |
| 1777945456 | 15° C | 87% | 1018.2 hPa | 0 mm | - | 0 W/m² | - |
| 1777945154 | 15.56° C | 86% | 1018.5 hPa | 0 mm | - | 0 W/m² | - |
| 1777944850 | 15.56° C | 86% | 1018.2 hPa | 0 mm | - | 0 W/m² | - |
| 1777944549 | 15.56° C | 84% | 1018.6 hPa | 0 mm | - | 0 W/m² | - |
| 1777944246 | 15.56° C | 84% | 1018.1 hPa | 0 mm | - | 0 W/m² | - |
| 1777943942 | 16.11° C | 81% | 1018.3 hPa | 0 mm | - | 0 W/m² | - |
| 1777943639 | 16.11° C | 80% | 1018.3 hPa | 0 mm | - | 0 W/m² | - |
| 1777943335 | 16.67° C | 79% | 1018.2 hPa | 0 mm | - | 0 W/m² | - |
| 1777943031 | 17.22° C | 78% | 1018.3 hPa | 0 mm | - | 0 W/m² | - |
| 1777942727 | 17.78° C | 76% | 1018.3 hPa | 0 mm | - | 0 W/m² | - |
| 1777942424 | 18.33° C | 74% | 1018.5 hPa | 0 mm | - | 0 W/m² | - |
| 1777942122 | 18.89° C | 72% | 1018.4 hPa | 0 mm | - | 0 W/m² | - |
| 1777941818 | 19.44° C | 70% | 1018.6 hPa | 0 mm | - | 0 W/m² | - |
| 1777941516 | 20° C | 68% | 1018.4 hPa | 0 mm | - | 0 W/m² | - |
| 1777941213 | 20.56° C | 64% | 1018.3 hPa | 0 mm | - | 0 W/m² | - |
| 1777940908 | 20.56° C | 64% | 1018.3 hPa | 0 mm | - | 0 W/m² | - |
* Rain latest hour (hover to see other rain measurements)
** Current wind speed in m/s (hover to see current wind gust speed)